Location: William D. McDowell Observatory
(40.7857°N, 74.1054°W)
Time: 01:06:35
(UTC-05:00)

OTV 5 (USA 277) - Visible Passes

Search period start: 20 November 2018 00:00
Search period end: 30 November 2018 00:00
Orbit: 339 x 348 km, 54.5° (Epoch: 14 November)

Date Brightness Start Highest point End Pass type
(mag) Time Alt. Az. Time Alt. Az. Time Alt. Az.
23 Nov ? 05:49:00 10° SSE 05:50:15 12° SE 05:51:29 10° E visible
24 Nov ? 06:10:46 10° SSW 06:13:30 41° SE 06:16:15 10° ENE visible
25 Nov ? 05:01:21 10° SSE 05:02:25 11° SE 05:03:28 10° ESE visible
26 Nov ? 05:23:20 13° SSW 05:25:38 39° SE 05:28:21 10° ENE visible
27 Nov ? 05:47:26 21° WSW 05:49:05 52° NW 05:51:54 10° NE visible
28 Nov ? 04:39:38 16° ENE 04:39:38 16° ENE 04:40:26 10° ENE visible
28 Nov ? 06:11:07 13° WNW 06:12:44 20° NNW 06:14:57 10° NNE visible
29 Nov ? 05:03:00 19° NE 05:03:00 19° NE 05:03:59 10° NE visible
